Date String (YYYY-MM-DD hh:mm:ss) UTC,Instrument flags,absolute air pressure of the measurement (hPa),sample flow rate (lpm),inlet stack bypass flow (lpm),air temperature of the measurement (°C),ambient temperature measured by the external sensor (°C),aerosol sample conditioner tube jacket temperature (°C),OPC LED temperature (°C),internal box temperature (°C),relative humidity of the measurement (%),span deviation,mass concentration of particles derived from Lorenz-Mie calculation of OPC scattering (μg/m³),mass concentration of particles derived from Lorenz-Mie calculation of OPC scattering (μg/m³),mass concentration of particles derived from Lorenz-Mie calculation of OPC scattering (μg/m³)
DateTimeUTC,F1_M11,P_M11,Q1_M11,Q2_M11,T1_M11,T2_M11,T3_M11,T4_M11,T5_M11,U1_M11,ZSPAN_M11,X0_M11,X2_M11,X1_M11
2023-06-18 08:00:00,SystemResetWarning,0828.5,5.00,000.00,030.1,028.3,000.0,038.7,031.4,16.1,0000.0,0008.01,0003.26,0002.88
2023-06-18 08:01:00,SystemResetWarning,0828.5,5.00,000.00,030.1,028.4,000.0,038.7,031.5,16.2,0000.0,0007.86,0003.26,0002.89
2023-06-18 08:02:00,SystemResetWarning,0828.6,5.00,000.00,030.1,028.4,000.0,038.7,031.5,16.2,0000.0,0006.06,0003.24,0002.87
2023-06-18 08:03:00,SystemResetWarning,0828.6,5.00,000.00,030.1,028.4,000.0,038.7,031.5,16.2,0000.0,0005.71,0003.21,0002.86
2023-06-18 08:04:00,SystemResetWarning,0828.5,5.00,000.00,030.1,028.4,000.0,038.7,031.5,16.4,0000.0,0005.70,0003.21,0002.85
2023-06-18 08:05:00,SystemResetWarning,0828.5,5.00,000.00,030.1,028.4,000.0,038.7,031.5,16.5,0000.0,0005.77,0003.22,0002.85
2023-06-18 08:06:00,SystemResetWarning,0828.5,5.01,000.00,030.1,028.4,000.0,038.7,031.6,16.5,0000.0,0005.86,0003.25,0002.87
2023-06-18 08:07:00,SystemResetWarning,0828.4,5.00,000.00,030.1,028.4,000.0,038.7,031.6,16.6,0000.0,0005.56,0003.24,0002.87
2023-06-18 08:08:00,SystemResetWarning,0828.4,5.00,000.00,030.1,028.4,000.0,038.7,031.5,16.5,0000.0,0004.76,0003.23,0002.87
2023-06-18 08:09:00,SystemResetWarning,0828.4,5.00,000.00,030.2,028.5,000.0,038.7,031.6,16.5,0000.0,0004.59,0003.21,0002.86
2023-06-18 08:10:00,SystemResetWarning,0828.4,5.00,000.00,030.2,028.5,000.0,038.7,031.6,16.8,0000.0,0004.38,0003.18,0002.85
2023-06-18 08:11:00,SystemResetWarning,0828.4,4.99,000.00,030.2,028.5,000.0,038.7,031.6,16.7,0000.0,0004.75,0003.17,0002.85
2023-06-18 08:12:00,SystemResetWarning,0828.4,4.99,000.00,030.2,028.5,000.0,038.8,031.7,16.7,0000.0,0005.50,0003.18,0002.84
2023-06-18 08:13:00,SystemResetWarning,0828.4,5.00,000.00,030.2,028.5,000.0,038.8,031.7,16.7,0000.0,0005.56,0003.20,0002.85
2023-06-18 08:14:00,SystemResetWarning,0828.4,5.00,000.00,030.2,028.5,000.0,038.8,031.7,16.7,0000.0,0005.58,0003.22,0002.87
2023-06-18 08:15:00,SystemResetWarning,0828.4,5.01,000.00,030.2,028.5,000.0,038.8,031.6,16.7,0000.0,0005.50,0003.21,0002.86
2023-06-18 08:16:00,SystemResetWarning,0828.4,5.00,000.00,030.2,028.5,000.0,038.8,031.6,16.6,0000.0,0005.38,0003.20,0002.88
2023-06-18 08:17:00,SystemResetWarning,0828.4,5.01,000.00,030.2,028.6,000.0,038.8,031.7,16.5,0000.0,0005.43,0003.22,0002.89
2023-06-18 08:18:00,SystemResetWarning,0828.4,5.00,000.00,030.2,028.6,000.0,038.8,031.7,16.6,0000.0,0005.73,0003.24,0002.88
2023-06-18 08:19:00,SystemResetWarning,0828.4,5.00,000.00,030.2,028.6,000.0,038.8,031.7,16.6,0000.0,0006.06,0003.27,0002.90
2023-06-18 08:20:00,SystemResetWarning,0828.4,4.99,000.00,030.2,028.6,000.0,038.8,031.7,16.4,0000.0,0006.17,0003.29,0002.90
2023-06-18 08:21:00,SystemResetWarning,0828.4,4.99,000.00,030.2,028.6,000.0,038.8,031.8,16.4,0000.0,0006.54,0003.34,0002.91
2023-06-18 08:22:00,SystemResetWarning,0828.4,5.00,000.00,030.2,028.7,000.0,038.8,031.7,16.3,0000.0,0006.27,0003.35,0002.91
2023-06-18 08:23:00,SystemResetWarning,0828.4,5.00,000.00,030.3,028.7,000.0,038.8,031.8,16.3,0000.0,0005.44,0003.36,0002.92
2023-06-18 08:24:00,SystemResetWarning,0828.3,5.00,000.00,030.3,028.7,000.0,038.8,031.8,16.2,0000.0,0005.55,0003.38,0002.93
2023-06-18 08:25:00,SystemResetWarning,0828.3,5.01,000.00,030.3,028.7,000.0,038.8,031.8,16.2,0000.0,0005.53,0003.37,0002.93
2023-06-18 08:26:00,SystemResetWarning,0828.3,5.00,000.00,030.3,028.7,000.0,038.8,031.8,16.1,0000.0,0005.69,0003.40,0002.94
2023-06-18 08:27:00,SystemResetWarning,0828.4,5.00,000.00,030.3,028.7,000.0,038.8,031.8,16.0,0000.0,0005.83,0003.41,0002.94
2023-06-18 08:28:00,SystemResetWarning,0828.4,5.00,000.00,030.3,028.7,000.0,038.8,031.8,16.1,0000.0,0005.78,0003.40,0002.93
2023-06-18 08:29:00,SystemResetWarning,0828.4,4.99,000.00,030.3,028.7,000.0,038.9,031.8,16.1,0000.0,0005.46,0003.37,0002.92
2023-06-18 08:30:00,SystemResetWarning,0828.4,5.00,000.00,030.3,028.7,000.0,038.9,031.8,16.2,0000.0,0005.25,0003.37,0002.93
2023-06-18 08:31:00,SystemResetWarning,0828.4,4.99,000.00,030.3,028.7,000.0,038.9,031.8,16.2,0000.0,0005.15,0003.35,0002.94
2023-06-18 08:32:00,SystemResetWarning,0828.4,4.99,000.00,030.4,028.7,000.0,038.9,031.8,16.2,0000.0,0004.95,0003.33,0002.94
2023-06-18 08:33:00,SystemResetWarning,0828.4,5.00,000.00,030.4,028.7,000.0,038.9,031.8,16.2,0000.0,0004.94,0003.32,0002.94
2023-06-18 08:34:00,SystemResetWarning,0828.4,5.00,000.00,030.4,028.7,000.0,038.9,031.8,16.2,0000.0,0004.91,0003.31,0002.92
2023-06-18 08:35:00,SystemResetWarning,0828.3,5.00,000.00,030.4,028.7,000.0,038.9,031.8,16.3,0000.0,0004.95,0003.31,0002.91
2023-06-18 08:36:00,SystemResetWarning,0828.3,5.00,000.00,030.4,028.7,000.0,038.9,031.8,16.2,0000.0,0005.07,0003.31,0002.92
2023-06-18 08:37:00,SystemResetWarning,0828.3,5.00,000.00,030.4,028.8,000.0,038.9,031.9,16.1,0000.0,0005.15,0003.34,0002.93
2023-06-18 08:38:00,SystemResetWarning,0828.3,5.00,000.00,030.4,028.8,000.0,038.9,031.9,16.0,0000.0,0005.08,0003.32,0002.91
2023-06-18 08:39:00,SystemResetWarning,0828.4,5.00,000.00,030.4,028.8,000.0,038.9,031.9,16.0,0000.0,0005.02,0003.31,0002.90
2023-06-18 08:40:00,SystemResetWarning,0828.3,5.00,000.00,030.4,028.8,000.0,038.9,031.9,16.0,0000.0,0005.16,0003.36,0002.93
2023-06-18 08:41:00,SystemResetWarning,0828.3,5.01,000.00,030.4,028.8,000.0,039.0,031.9,16.1,0000.0,0005.28,0003.37,0002.94
2023-06-18 08:42:00,SystemResetWarning,0828.2,5.00,000.00,030.4,028.8,000.0,039.0,031.9,16.1,0000.0,0005.51,0003.39,0002.93
2023-06-18 08:43:00,SystemResetWarning,0828.2,5.01,000.00,030.4,028.8,000.0,039.0,031.9,16.1,0000.0,0005.53,0003.39,0002.94
2023-06-18 08:44:00,SystemResetWarning,0828.2,4.99,000.00,030.4,028.8,000.0,039.0,031.9,16.1,0000.0,0005.44,0003.39,0002.94
2023-06-18 08:45:00,SystemResetWarning,0828.2,4.99,000.00,030.4,028.8,000.0,039.0,031.9,16.1,0000.0,0006.06,0003.38,0002.96
2023-06-18 08:46:00,SystemResetWarning,0828.3,5.00,000.00,030.4,028.8,000.0,039.0,031.9,16.1,0000.0,0006.28,0003.37,0002.97
2023-06-18 08:47:00,SystemResetWarning,0828.3,5.00,000.00,030.5,028.8,000.0,039.0,031.9,16.1,0000.0,0006.76,0003.36,0002.97
2023-06-18 08:48:00,SystemResetWarning,0828.3,5.00,000.00,030.5,028.8,000.0,039.0,031.9,16.1,0000.0,0007.02,0003.34,0002.97
2023-06-18 08:49:00,SystemResetWarning,0828.3,5.01,000.00,030.5,028.8,000.0,039.0,031.9,16.0,0000.0,0006.93,0003.34,0002.98
2023-06-18 08:50:00,SystemResetWarning,0828.2,5.00,000.00,030.5,028.8,000.0,039.0,031.9,15.8,0000.0,0006.90,0003.33,0002.99
2023-06-18 08:51:00,SystemResetWarning,0828.2,5.00,000.00,030.5,028.8,000.0,039.0,031.9,16.1,0000.0,0007.25,0003.30,0002.97
2023-06-18 08:52:00,SystemResetWarning,0828.2,5.00,000.00,030.5,028.8,000.0,039.0,031.9,15.9,0000.0,0007.39,0003.30,0002.96
2023-06-18 08:53:00,SystemResetWarning,0828.2,4.99,000.00,030.5,028.8,000.0,039.0,032.0,15.8,0000.0,0007.32,0003.31,0002.98
2023-06-18 08:54:00,SystemResetWarning,0828.2,4.99,000.00,030.5,028.8,000.0,039.0,031.9,15.9,0000.0,0007.34,0003.31,0002.99
2023-06-18 08:55:00,SystemResetWarning,0828.3,5.00,000.00,030.5,028.8,000.0,039.0,032.0,15.8,0000.0,0007.31,0003.30,0003.00
2023-06-18 08:56:00,SystemResetWarning,0828.3,5.01,000.00,030.5,028.8,000.0,039.0,032.0,15.9,0000.0,0007.78,0003.31,0002.99
2023-06-18 08:57:00,SystemResetWarning,0828.3,5.01,000.00,030.5,028.8,000.0,039.0,032.0,16.1,0000.0,0007.74,0003.31,0002.99
2023-06-18 08:58:00,SystemResetWarning,0828.3,5.00,000.00,030.5,028.8,000.0,039.1,032.0,16.4,0000.0,0007.57,0003.34,0002.99
2023-06-18 08:59:00,SystemResetWarning,0828.2,5.00,000.00,030.5,028.8,000.0,039.1,032.0,17.0,0000.0,0007.35,0003.35,0002.99
